YAOGAN-30 AD

导读

YAOGAN-30 AD是中国于北京时间2021年7月19日08时,在西昌卫星发射中心通过长征二号丙运载火箭发射的遥感三十号10组卫星成员,发射任务取得圆满成功,卫星顺利进入预定轨道。该卫星属于遥感三十号卫星系列,主要用于开展电磁环境探测及相关技术试验,是我国航天遥感体系的重要组成部分。

基本信息
目录编号:
49026
目录名称:
YAOGAN-30 AD
国际标识:
2021-065A
轨道中心:
EARTH
卫星名称:
YAOGAN-30 AD
卫星全名:
--
卫星状态:
在轨 (已飞行1882 天)
发射日期:
2021-07-19 UTC
国别 :
中国 (CN)
星等 :
--
该卫星已列入 空间交会检测服务 Space Conjunction Data Service (SCDS) ,当前飞行风险评估等级: 高风险
轨道信息
数据来源 国际轨道数据 AOE轨道数据
星历时间 2026-09-13T08:16:07+0800
5小时前
查看轨道信息
2026-09-11T11:00:00+0800
2天前
查看轨道信息
半长轴 6935.781km 6935.738km
偏心率 0.0004347 0.0004101
轨道倾角 34.993° 34.992°
近地点辐角 207.263° 197.594°
升交点赤经 97.651° 109.150°
平近点角 152.786° 20.121°
近地点 554.629km 554.756km
远地点 560.659km 560.446km
周期 95.808分钟 95.807分钟
每日圈数 15.030026 15.030165
详细信息
使用方式:
暂无
2D轨道图
3D轨道图
轨道高度分析图
轨道倾角分析图
轨道综合分析图
查看轨道综合分析图
与全量物体交会距离演化趋势
与全量物体交会风险概率演化趋势